^^
Datos históricos de la estación: Murcia-Puente Tocinos
Diario Informe para Marzo 28, 2019 Unidades:  Métrico    Inglés   Ambas
Diario Semanal Mensual Anual Configurable
  Máximo: Mínimo: Media:
Temperatura: 18.1 °C 7.4 °C 12.8 °C
Punto de rocio: 8.6 °C -4.1 °C 2.7 °C
Humedad: 80% 22% 53%
Velocidad viento: 19.3km/h 0.0km/h 8.6km/h
Racha viento: 33.3km/h - -
Viento- - SE
Presión: 1027.0 hPa 1024.1 hPa -
Precipitación: 0.0 mm    
Historical Graphs
 
 
Tabla de datos para Marzo 28, 2019
Hora Temperatura Punto de rocio Presión Viento Velocidad viento Racha viento Humedad Intensidad lluvia(por hora) Nubes
00:00 10.8 °C 4.7 °C 1025.3 hPa SSE 3.2 km/h 4.8 km/h 66% 0.0 mm CLR
00:05 10.7 °C 4.6 °C 1025.6 hPa SSE 2.9 km/h   66% 0.0 mm CLR
00:10 10.6 °C 4.7 °C 1025.6 hPa Calm     67% 0.0 mm CLR
00:15 10.5 °C 4.6 °C 1025.6 hPa Calm     67% 0.0 mm CLR
00:20 10.4 °C 4.9 °C 1025.7 hPa Calm   7.6 km/h 69% 0.0 mm CLR
00:25 10.4 °C 4.7 °C 1025.7 hPa Calm   7.4 km/h 68% 0.0 mm CLR
00:30 10.3 °C 4.7 °C 1025.7 hPa SSW 5.0 km/h 5.8 km/h 68% 0.0 mm CLR
00:35 10.4 °C 4.6 °C 1025.8 hPa SW 5.0 km/h 5.6 km/h 67% 0.0 mm CLR
00:40 10.4 °C 4.6 °C 1025.8 hPa SW 3.9 km/h 5.6 km/h 67% 0.0 mm CLR
00:45 10.4 °C 4.6 °C 1025.8 hPa SW 3.9 km/h 7.4 km/h 67% 0.0 mm CLR
00:50 10.4 °C 4.6 °C 1025.8 hPa SW 3.2 km/h 3.7 km/h 67% 0.0 mm CLR
00:55 10.3 °C 4.4 °C 1025.8 hPa SW 3.2 km/h 3.7 km/h 67% 0.0 mm CLR
01:00 10.4 °C 4.6 °C 1025.8 hPa SW 1.6 km/h 4.8 km/h 67% 0.0 mm CLR
01:05 10.4 °C 4.6 °C 1025.7 hPa SE 2.3 km/h 7.4 km/h 67% 0.0 mm CLR
01:10 10.3 °C 4.4 °C 1025.7 hPa SE 3.9 km/h 3.7 km/h 67% 0.0 mm CLR
01:15 10.3 °C 4.2 °C 1025.7 hPa SE 3.9 km/h 7.4 km/h 66% 0.0 mm CLR
01:20 10.1 °C 4.1 °C 1025.7 hPa SSE 3.9 km/h 9.3 km/h 66% 0.0 mm CLR
01:25 9.7 °C 3.9 °C 1025.7 hPa South 3.9 km/h 7.6 km/h 67% 0.0 mm CLR
01:30 9.6 °C 4.0 °C 1025.7 hPa South 6.4 km/h 7.4 km/h 68% 0.0 mm CLR
01:35 9.6 °C 4.0 °C 1025.7 hPa South 6.4 km/h 7.4 km/h 68% 0.0 mm CLR
01:40 9.6 °C 4.0 °C 1025.7 hPa SSW 5.8 km/h 8.4 km/h 68% 0.0 mm CLR
01:45 9.6 °C 4.0 °C 1025.7 hPa South 5.8 km/h 8.4 km/h 68% 0.0 mm CLR
01:50 9.7 °C 3.9 °C 1025.6 hPa South 6.4 km/h 13.0 km/h 67% 0.0 mm CLR
01:55 9.6 °C 3.6 °C 1025.6 hPa SSW 6.4 km/h 11.1 km/h 66% 0.0 mm CLR
02:00 9.5 °C 3.4 °C 1025.6 hPa SSW 9.7 km/h 12.9 km/h 66% 0.0 mm CLR
02:05 9.5 °C 3.4 °C 1025.6 hPa SSW 8.7 km/h 9.3 km/h 66% 0.0 mm CLR
02:10 9.5 °C 3.4 °C 1025.6 hPa SW 5.8 km/h 9.3 km/h 66% 0.0 mm CLR
02:15 9.4 °C 3.4 °C 1025.6 hPa SW 5.8 km/h 7.4 km/h 66% 0.0 mm CLR
02:20 9.4 °C 3.4 °C 1025.5 hPa SW 4.7 km/h 7.4 km/h 66% 0.0 mm CLR
02:25 9.4 °C 3.4 °C 1025.5 hPa SW 4.7 km/h 3.9 km/h 66% 0.0 mm CLR
02:30 9.3 °C 3.3 °C 1025.5 hPa SW 3.2 km/h 5.6 km/h 66% 0.0 mm CLR
02:35 9.3 °C 3.3 °C 1025.4 hPa SW 3.2 km/h 3.9 km/h 66% 0.0 mm CLR
02:40 9.3 °C 3.3 °C 1025.4 hPa SSW 3.9 km/h 7.4 km/h 66% 0.0 mm CLR
02:45 9.4 °C 3.4 °C 1025.4 hPa WSW 3.9 km/h 7.6 km/h 66% 0.0 mm CLR
02:50 9.4 °C 3.2 °C 1025.4 hPa WSW 5.0 km/h 9.3 km/h 65% 0.0 mm CLR
02:55 9.3 °C 3.1 °C 1025.4 hPa SW 5.0 km/h 11.1 km/h 65% 0.0 mm CLR
03:00 9.3 °C 3.1 °C 1025.4 hPa SW 8.0 km/h 11.3 km/h 65% 0.0 mm CLR
03:05 9.3 °C 3.1 °C 1025.3 hPa WSW 6.4 km/h 9.3 km/h 65% 0.0 mm CLR
03:10 9.3 °C 3.1 °C 1025.3 hPa SSW 6.9 km/h 9.5 km/h 65% 0.0 mm CLR
03:15 9.2 °C 2.9 °C 1025.3 hPa SSW 6.9 km/h 9.3 km/h 65% 0.0 mm CLR
03:20 9.1 °C 2.9 °C 1025.2 hPa SSW 6.9 km/h 10.3 km/h 65% 0.0 mm CLR
03:25 9.1 °C 2.9 °C 1025.2 hPa SSW 6.9 km/h 13.0 km/h 65% 0.0 mm CLR
03:30 8.9 °C 2.7 °C 1025.2 hPa SSW 7.6 km/h 11.1 km/h 65% 0.0 mm CLR
03:35 8.8 °C 2.6 °C 1025.3 hPa SSW 7.6 km/h 13.0 km/h 65% 0.0 mm CLR
03:40 8.9 °C 2.7 °C 1025.3 hPa SSW 9.5 km/h 13.0 km/h 65% 0.0 mm CLR
03:45 8.9 °C 2.4 °C 1025.3 hPa SSW 9.5 km/h 13.0 km/h 64% 0.0 mm CLR
03:50 8.8 °C 2.3 °C 1025.3 hPa SW 8.4 km/h 14.8 km/h 64% 0.0 mm CLR
03:55 8.8 °C 2.3 °C 1025.3 hPa SW 8.4 km/h 10.3 km/h 64% 0.0 mm CLR
04:00 8.8 °C 2.3 °C 1025.3 hPa SW 8.0 km/h 16.1 km/h 64% 0.0 mm CLR
04:05 8.7 °C 2.3 °C 1025.2 hPa South 7.6 km/h 11.1 km/h 64% 0.0 mm CLR
04:10 8.7 °C 2.3 °C 1025.2 hPa SSW 8.4 km/h 11.1 km/h 64% 0.0 mm CLR
04:15 8.7 °C 2.5 °C 1025.2 hPa SW 8.4 km/h 11.1 km/h 65% 0.0 mm CLR
04:20 8.7 °C 2.3 °C 1025.2 hPa South 6.9 km/h 11.1 km/h 64% 0.0 mm CLR
04:25 8.6 °C 2.2 °C 1025.2 hPa SW 6.9 km/h 11.1 km/h 64% 0.0 mm CLR
04:30 8.6 °C 2.2 °C 1025.2 hPa SSW 7.6 km/h 11.1 km/h 64% 0.0 mm CLR
04:35 8.7 °C 2.1 °C 1025.2 hPa South 7.6 km/h 9.3 km/h 63% 0.0 mm CLR
04:40 8.6 °C 1.9 °C 1025.2 hPa South 6.9 km/h 11.1 km/h 63% 0.0 mm CLR
04:45 8.6 °C 1.9 °C 1025.2 hPa SSW 6.9 km/h 13.0 km/h 63% 0.0 mm CLR
04:50 8.4 °C 1.6 °C 1025.3 hPa South 8.4 km/h 13.0 km/h 62% 0.0 mm CLR
04:55 8.3 °C 1.7 °C 1025.3 hPa South 8.4 km/h 11.1 km/h 63% 0.0 mm CLR
05:00 8.2 °C 1.6 °C 1025.3 hPa SSW 9.7 km/h 12.9 km/h 63% 0.0 mm CLR
05:05 8.1 °C 1.5 °C 1025.4 hPa SSW 8.7 km/h 11.1 km/h 63% 0.0 mm CLR
05:10 8.1 °C 1.5 °C 1025.4 hPa SW 8.7 km/h 11.1 km/h 63% 0.0 mm CLR
05:15 8.1 °C 1.5 °C 1025.4 hPa SSW 8.7 km/h 9.3 km/h 63% 0.0 mm CLR
05:20 8.1 °C 1.5 °C 1025.4 hPa SSW 6.9 km/h 9.3 km/h 63% 0.0 mm CLR
05:25 8.0 °C 1.4 °C 1025.4 hPa SW 6.9 km/h 11.1 km/h 63% 0.0 mm CLR
05:30 8.0 °C 1.4 °C 1025.4 hPa SSW 8.4 km/h 14.8 km/h 63% 0.0 mm CLR
05:35 8.0 °C 1.4 °C 1025.4 hPa SSW 8.4 km/h 16.7 km/h 63% 0.0 mm CLR
05:40 7.9 °C 1.3 °C 1025.4 hPa SW 11.1 km/h 13.0 km/h 63% 0.0 mm CLR
05:45 7.9 °C 1.3 °C 1025.4 hPa SW 11.1 km/h 13.0 km/h 63% 0.0 mm CLR
05:50 7.9 °C 1.3 °C 1025.5 hPa SW 8.7 km/h 7.6 km/h 63% 0.0 mm CLR
05:55 7.9 °C 1.3 °C 1025.5 hPa SSW 8.7 km/h 14.0 km/h 63% 0.0 mm CLR
06:00 7.9 °C 1.1 °C 1025.5 hPa SSW 9.7 km/h 16.1 km/h 62% 0.0 mm CLR
06:05 8.0 °C 0.9 °C 1025.5 hPa SW 9.5 km/h 18.5 km/h 61% 0.0 mm CLR
06:10 8.1 °C 1.0 °C 1025.5 hPa SW 10.0 km/h 16.7 km/h 61% 0.0 mm CLR
06:15 8.0 °C 0.9 °C 1025.5 hPa SW 10.0 km/h 11.1 km/h 61% 0.0 mm CLR
06:20 8.0 °C 0.9 °C 1025.6 hPa WSW 10.0 km/h 9.5 km/h 61% 0.0 mm CLR
06:25 7.9 °C 1.1 °C 1025.6 hPa SW 10.0 km/h 7.4 km/h 62% 0.0 mm CLR
06:30 7.9 °C 1.1 °C 1025.6 hPa SW 6.4 km/h 7.4 km/h 62% 0.0 mm CLR
06:35 7.9 °C 1.1 °C 1025.8 hPa SW 6.4 km/h 7.4 km/h 62% 0.0 mm CLR
06:40 7.9 °C 1.1 °C 1025.8 hPa WSW 5.0 km/h 9.3 km/h 62% 0.0 mm CLR
06:45 7.8 °C 0.7 °C 1025.8 hPa WSW 5.0 km/h 11.1 km/h 61% 0.0 mm CLR
06:50 7.7 °C 0.7 °C 1025.9 hPa WSW 6.9 km/h 9.3 km/h 61% 0.0 mm CLR
06:55 7.7 °C 0.9 °C 1025.9 hPa WSW 6.9 km/h 9.3 km/h 62% 0.0 mm CLR
07:00 7.6 °C 0.8 °C 1025.9 hPa WSW 8.0 km/h 11.3 km/h 62% 0.0 mm CLR
07:05 7.6 °C 0.8 °C 1026.0 hPa WSW 6.4 km/h 9.3 km/h 62% 0.0 mm CLR
07:10 7.5 °C 0.7 °C 1026.0 hPa WSW 6.4 km/h 11.1 km/h 62% 0.0 mm CLR
07:15 7.4 °C 0.4 °C 1026.0 hPa WSW 6.4 km/h 11.1 km/h 61% 0.0 mm CLR
07:20 7.4 °C 0.4 °C 1026.1 hPa WSW 7.6 km/h 11.1 km/h 61% 0.0 mm CLR
07:25 7.4 °C 0.4 °C 1026.1 hPa SW 7.6 km/h 9.3 km/h 61% 0.0 mm CLR
07:30 7.4 °C 0.1 °C 1026.1 hPa SW 5.8 km/h 9.3 km/h 60% 0.0 mm CLR
07:35 7.4 °C 0.1 °C 1026.2 hPa SW 5.8 km/h 9.3 km/h 60% 0.0 mm CLR
07:40 7.6 °C 0.1 °C 1026.2 hPa WSW 5.8 km/h 5.6 km/h 59% 0.0 mm CLR
07:45 7.7 °C 0.2 °C 1026.2 hPa SW 5.8 km/h 7.4 km/h 59% 0.0 mm CLR
07:50 7.8 °C 0.1 °C 1026.4 hPa WSW 3.9 km/h 7.4 km/h 58% 0.0 mm CLR
07:55 7.9 °C -0.1 °C 1026.4 hPa SW 3.9 km/h 7.4 km/h 57% 0.0 mm CLR
08:00 8.1 °C -0.2 °C 1026.4 hPa SW 4.8 km/h 8.0 km/h 56% 0.0 mm CLR
08:05 8.3 °C -0.2 °C 1026.5 hPa WSW 5.0 km/h 9.3 km/h 55% 0.0 mm CLR
08:10 8.4 °C -0.1 °C 1026.5 hPa SW 5.8 km/h 7.4 km/h 55% 0.0 mm CLR
08:15 8.6 °C -0.2 °C 1026.5 hPa SSW 5.8 km/h 11.1 km/h 54% 0.0 mm CLR
08:20 8.7 °C -0.1 °C 1026.6 hPa WSW 5.8 km/h 11.1 km/h 54% 0.0 mm CLR
08:25 8.8 °C -0.3 °C 1026.6 hPa SW 5.8 km/h 14.8 km/h 53% 0.0 mm CLR
08:30 8.8 °C -0.3 °C 1026.6 hPa SSW 9.5 km/h 4.7 km/h 53% 0.0 mm CLR
08:35 9.2 °C -0.2 °C 1026.6 hPa SW 9.5 km/h 14.8 km/h 52% 0.0 mm CLR
08:40 9.3 °C -0.3 °C 1026.6 hPa SSE 6.9 km/h 16.7 km/h 51% 0.0 mm CLR
08:45 9.7 °C 0.1 °C 1026.6 hPa SW 6.9 km/h 7.4 km/h 51% 0.0 mm CLR
08:50 9.8 °C -0.2 °C 1026.6 hPa SSW 6.9 km/h 7.6 km/h 50% 0.0 mm CLR
08:55 10.0 °C -0.2 °C 1026.6 hPa SSW 6.9 km/h 13.0 km/h 49% 0.0 mm CLR
09:00 10.1 °C -0.2 °C 1026.6 hPa SSW 8.0 km/h 14.5 km/h 49% 0.0 mm CLR
09:05 10.2 °C -0.3 °C 1026.7 hPa WSW 6.9 km/h 13.0 km/h 48% 0.0 mm CLR
09:10 10.3 °C -0.2 °C 1026.7 hPa SW 8.7 km/h 11.1 km/h 48% 0.0 mm CLR
09:15 10.3 °C -0.2 °C 1026.7 hPa WSW 8.7 km/h 14.8 km/h 48% 0.0 mm CLR
09:20 10.4 °C 0.1 °C 1026.8 hPa SW 9.5 km/h 7.4 km/h 49% 0.0 mm CLR
09:25 10.6 °C 0.3 °C 1026.8 hPa SW 9.5 km/h 14.8 km/h 49% 0.0 mm CLR
09:30 10.8 °C 0.2 °C 1026.8 hPa South 7.6 km/h 11.1 km/h 48% 0.0 mm CLR
09:35 11.1 °C 0.5 °C 1026.9 hPa West 7.6 km/h 11.1 km/h 48% 0.0 mm CLR
09:40 11.1 °C 0.5 °C 1026.9 hPa SW 6.9 km/h 7.4 km/h 48% 0.0 mm CLR
09:45 11.3 °C 0.4 °C 1026.9 hPa SW 6.9 km/h 13.0 km/h 47% 0.0 mm CLR
09:50 11.4 °C 0.5 °C 1026.9 hPa SW 7.6 km/h 13.0 km/h 47% 0.0 mm CLR
09:55 11.5 °C 0.6 °C 1026.9 hPa SSW 7.6 km/h 11.1 km/h 47% 0.0 mm CLR
10:00 11.8 °C 0.8 °C 1026.9 hPa SW 9.7 km/h 14.5 km/h 47% 0.0 mm CLR
10:05 11.9 °C 0.6 °C 1027.0 hPa WSW 8.7 km/h 14.8 km/h 46% 0.0 mm CLR
10:10 12.1 °C 0.8 °C 1027.0 hPa WSW 8.4 km/h 7.4 km/h 46% 0.0 mm CLR
10:15 12.5 °C 0.9 °C 1027.0 hPa SSW 8.4 km/h 11.1 km/h 45% 0.0 mm CLR
10:20 12.7 °C 0.7 °C 1027.0 hPa SSW 6.9 km/h 7.4 km/h 44% 0.0 mm CLR
10:25 13.1 °C 0.8 °C 1027.0 hPa SW 6.9 km/h 14.8 km/h 43% 0.0 mm CLR
10:30 13.2 °C 0.9 °C 1027.0 hPa WNW 7.6 km/h 7.4 km/h 43% 0.0 mm CLR
10:35 13.4 °C 1.1 °C 1027.0 hPa SSW 7.6 km/h 9.3 km/h 43% 0.0 mm CLR
10:40 13.6 °C 0.9 °C 1027.0 hPa SE 5.8 km/h 7.6 km/h 42% 0.0 mm CLR
10:45 13.8 °C 0.8 °C 1027.0 hPa SW 5.8 km/h 11.1 km/h 41% 0.0 mm CLR
10:50 14.0 °C 0.9 °C 1026.9 hPa WSW 6.4 km/h 7.4 km/h 41% 0.0 mm CLR
10:55 14.3 °C 0.9 °C 1026.9 hPa SE 6.4 km/h 9.3 km/h 40% 0.0 mm CLR
11:00 14.4 °C 0.6 °C 1026.9 hPa SSW 4.8 km/h 12.9 km/h 39% 0.0 mm CLR
11:05 14.5 °C 0.7 °C 1026.9 hPa SSW 5.8 km/h 11.1 km/h 39% 0.0 mm CLR
11:10 14.8 °C 0.6 °C 1026.9 hPa SW 6.4 km/h 11.1 km/h 38% 0.0 mm CLR
11:15 15.0 °C 0.1 °C 1026.9 hPa SW 6.4 km/h 5.6 km/h 36% 0.0 mm CLR
11:20 15.4 °C 0.0 °C 1026.7 hPa ESE 4.7 km/h 4.7 km/h 35% 0.0 mm CLR
11:25 15.9 °C -0.4 °C 1026.7 hPa ESE 4.7 km/h 7.4 km/h 33% 0.0 mm CLR
11:30 16.3 °C -0.4 °C 1026.7 hPa South 3.9 km/h 5.6 km/h 32% 0.0 mm CLR
11:35 16.7 °C -0.6 °C 1026.5 hPa West 3.9 km/h 10.0 km/h 31% 0.0 mm CLR
11:40 16.7 °C -1.9 °C 1026.5 hPa ENE 4.7 km/h 7.4 km/h 28% 0.0 mm CLR
11:45 16.6 °C -3.0 °C 1026.5 hPa ENE 4.7 km/h 18.5 km/h 26% 0.0 mm CLR
11:50 16.4 °C -2.7 °C 1026.4 hPa NNE 8.7 km/h 11.1 km/h 27% 0.0 mm CLR
11:55 16.6 °C -2.5 °C 1026.4 hPa ESE 8.7 km/h 12.2 km/h 27% 0.0 mm CLR
12:00 16.8 °C -2.3 °C 1026.4 hPa East 8.0 km/h 12.9 km/h 27% 0.0 mm CLR
12:05 17.1 °C -2.1 °C 1026.2 hPa NE 7.6 km/h 14.0 km/h 27% 0.0 mm CLR
12:10 17.1 °C -3.1 °C 1026.2 hPa NNE 7.6 km/h 16.7 km/h 25% 0.0 mm CLR
12:15 17.1 °C -3.1 °C 1026.2 hPa ESE 7.6 km/h 22.2 km/h 25% 0.0 mm CLR
12:20 17.2 °C -2.5 °C 1026.0 hPa ENE 11.1 km/h 13.0 km/h 26% 0.0 mm CLR
12:25 17.3 °C -2.9 °C 1026.0 hPa NE 11.1 km/h 16.7 km/h 25% 0.0 mm CLR
12:30 17.4 °C -2.8 °C 1026.0 hPa North 5.8 km/h 13.0 km/h 25% 0.0 mm CLR
12:35 17.6 °C -2.7 °C 1025.8 hPa ENE 5.8 km/h 25.6 km/h 25% 0.0 mm CLR
12:40 17.6 °C -2.7 °C 1025.8 hPa NNE 11.1 km/h 18.5 km/h 25% 0.0 mm CLR
12:45 17.6 °C -2.7 °C 1025.8 hPa ENE 11.1 km/h 27.8 km/h 25% 0.0 mm CLR
12:50 17.5 °C -2.2 °C 1025.7 hPa NNE 13.7 km/h 16.7 km/h 26% 0.0 mm CLR
12:55 17.9 °C -2.4 °C 1025.7 hPa NNE 13.7 km/h 20.4 km/h 25% 0.0 mm CLR
13:00 17.9 °C -2.4 °C 1025.7 hPa ENE 11.3 km/h 29.0 km/h 25% 0.0 mm CLR
13:05 18.1 °C -2.8 °C 1025.5 hPa ESE 11.1 km/h 27.8 km/h 24% 0.0 mm CLR
13:10 17.8 °C -3.1 °C 1025.5 hPa East 12.2 km/h 16.4 km/h 24% 0.0 mm CLR
13:15 17.8 °C -3.6 °C 1025.5 hPa NE 12.2 km/h 20.4 km/h 23% 0.0 mm CLR
13:20 17.7 °C -3.2 °C 1025.5 hPa ENE 14.8 km/h 20.9 km/h 24% 0.0 mm CLR
13:25 17.8 °C -2.5 °C 1025.5 hPa ENE 14.8 km/h 27.8 km/h 25% 0.0 mm CLR
13:30 17.9 °C -2.4 °C 1025.5 hPa ESE 12.2 km/h 18.5 km/h 25% 0.0 mm CLR
13:35 18.1 °C -1.7 °C 1025.4 hPa NE 12.2 km/h 18.5 km/h 26% 0.0 mm CLR
13:40 18.1 °C -2.3 °C 1025.4 hPa East 13.0 km/h 20.4 km/h 25% 0.0 mm CLR
13:45 18.1 °C -2.8 °C 1025.4 hPa NE 13.0 km/h 20.4 km/h 24% 0.0 mm CLR
13:50 17.9 °C -3.0 °C 1025.3 hPa East 13.0 km/h 14.8 km/h 24% 0.0 mm CLR
13:55 17.7 °C -3.2 °C 1025.3 hPa SSE 13.0 km/h 24.1 km/h 24% 0.0 mm CLR
14:00 17.7 °C -3.2 °C 1025.3 hPa ENE 14.5 km/h 24.1 km/h 24% 0.0 mm CLR
14:05 17.9 °C -3.6 °C 1025.1 hPa ESE 14.0 km/h 13.0 km/h 23% 0.0 mm CLR
14:10 18.0 °C -4.1 °C 1025.1 hPa SE 10.3 km/h 14.8 km/h 22% 0.0 mm CLR
14:15 18.0 °C -3.4 °C 1025.1 hPa East 10.3 km/h 25.9 km/h 23% 0.0 mm CLR
14:20 17.8 °C -3.1 °C 1024.9 hPa NNE 14.8 km/h 16.7 km/h 24% 0.0 mm CLR
14:25 17.9 °C -2.4 °C 1024.9 hPa ENE 14.8 km/h 22.0 km/h 25% 0.0 mm CLR
14:30 18.0 °C -1.8 °C 1024.9 hPa ENE 14.0 km/h 18.5 km/h 26% 0.0 mm CLR
14:35 17.9 °C -1.4 °C 1024.8 hPa NNE 14.0 km/h 29.6 km/h 27% 0.0 mm CLR
14:40 17.8 °C -1.0 °C 1024.8 hPa North 16.4 km/h 24.1 km/h 28% 0.0 mm CLR
14:45 17.8 °C -0.5 °C 1024.8 hPa East 16.4 km/h 22.2 km/h 29% 0.0 mm CLR
14:50 17.8 °C -0.5 °C 1024.7 hPa NNE 15.6 km/h 31.5 km/h 29% 0.0 mm CLR
14:55 17.6 °C -0.2 °C 1024.7 hPa NNE 15.6 km/h 22.2 km/h 30% 0.0 mm CLR
15:00 17.8 °C -0.5 °C 1024.7 hPa NE 19.3 km/h 27.4 km/h 29% 0.0 mm CLR
15:05 17.7 °C 0.3 °C 1024.7 hPa NNE 18.0 km/h 20.4 km/h 31% 0.0 mm CLR
15:10 17.8 °C 0.9 °C 1024.7 hPa ENE 15.6 km/h 13.0 km/h 32% 0.0 mm CLR
15:15 17.8 °C 0.9 °C 1024.7 hPa North 15.6 km/h 22.2 km/h 32% 0.0 mm CLR
15:20 17.7 °C 1.2 °C 1024.5 hPa ENE 13.7 km/h 24.1 km/h 33% 0.0 mm CLR
15:25 17.7 °C 1.6 °C 1024.5 hPa NE 13.7 km/h 33.3 km/h 34% 0.0 mm CLR
15:30 17.8 °C 0.9 °C 1024.5 hPa ESE 15.6 km/h 20.4 km/h 32% 0.0 mm CLR
15:35 17.8 °C 1.3 °C 1024.5 hPa NNE 15.6 km/h 24.1 km/h 33% 0.0 mm CLR
15:40 17.8 °C 0.9 °C 1024.5 hPa East 15.6 km/h 24.1 km/h 32% 0.0 mm CLR
15:45 17.7 °C 0.8 °C 1024.5 hPa NE 15.6 km/h 24.1 km/h 32% 0.0 mm CLR
15:50 17.7 °C 0.8 °C 1024.4 hPa East 15.6 km/h 20.4 km/h 32% 0.0 mm CLR
15:55 18.1 °C 0.2 °C 1024.4 hPa East 15.6 km/h 25.9 km/h 30% 0.0 mm CLR
16:00 17.8 °C 0.0 °C 1024.4 hPa East 12.9 km/h 24.1 km/h 30% 0.0 mm CLR
16:05 17.6 °C -0.2 °C 1024.2 hPa NE 13.7 km/h 29.6 km/h 30% 0.0 mm CLR
16:10 17.7 °C -0.1 °C 1024.2 hPa North 16.1 km/h 22.2 km/h 30% 0.0 mm CLR
16:15 17.8 °C 0.9 °C 1024.2 hPa ENE 16.1 km/h 20.4 km/h 32% 0.0 mm CLR
16:20 17.7 °C 0.8 °C 1024.3 hPa NE 13.7 km/h 29.6 km/h 32% 0.0 mm CLR
16:25 17.4 °C 0.5 °C 1024.3 hPa NE 13.7 km/h 27.8 km/h 32% 0.0 mm CLR
16:30 17.3 °C 1.3 °C 1024.3 hPa NE 19.0 km/h 29.6 km/h 34% 0.0 mm CLR
16:35 17.4 °C 2.2 °C 1024.1 hPa NNE 19.0 km/h 28.2 km/h 36% 0.0 mm CLR
16:40 17.3 °C 2.4 °C 1024.1 hPa ENE 17.2 km/h 24.1 km/h 37% 0.0 mm CLR
16:45 17.4 °C 3.3 °C 1024.1 hPa NE 17.2 km/h 24.1 km/h 39% 0.0 mm CLR
16:50 17.4 °C 2.9 °C 1024.2 hPa NE 16.1 km/h 14.8 km/h 38% 0.0 mm CLR
16:55 17.4 °C 3.7 °C 1024.2 hPa NE 16.1 km/h 24.1 km/h 40% 0.0 mm CLR
17:00 17.5 °C 3.0 °C 1024.2 hPa NE 14.5 km/h 24.1 km/h 38% 0.0 mm CLR
17:05 17.4 °C 4.0 °C 1024.2 hPa ESE 14.0 km/h 16.7 km/h 41% 0.0 mm CLR
17:10 17.4 °C 4.0 °C 1024.2 hPa NNW 12.2 km/h 22.2 km/h 41% 0.0 mm CLR
17:15 17.2 °C 4.2 °C 1024.2 hPa ENE 12.2 km/h 27.8 km/h 42% 0.0 mm CLR
17:20 16.8 °C 4.2 °C 1024.2 hPa NNE 16.4 km/h 33.3 km/h 43% 0.0 mm CLR
17:25 16.7 °C 4.1 °C 1024.2 hPa NE 16.4 km/h 25.9 km/h 43% 0.0 mm CLR
17:30 16.7 °C 4.1 °C 1024.2 hPa NNE 19.0 km/h 29.6 km/h 43% 0.0 mm CLR
17:35 16.5 °C 4.2 °C 1024.3 hPa NE 19.0 km/h 24.1 km/h 44% 0.0 mm CLR
17:40 16.6 °C 4.6 °C 1024.3 hPa NNE 19.0 km/h 25.9 km/h 45% 0.0 mm CLR
17:45 16.7 °C 4.7 °C 1024.3 hPa NNW 19.0 km/h 24.1 km/h 45% 0.0 mm CLR
17:50 16.6 °C 4.6 °C 1024.3 hPa NNE 16.1 km/h 20.4 km/h 45% 0.0 mm CLR
17:55 16.5 °C 4.2 °C 1024.3 hPa NE 16.1 km/h 22.2 km/h 44% 0.0 mm CLR
18:00 16.4 °C 4.2 °C 1024.3 hPa NE 16.1 km/h 25.7 km/h 44% 0.0 mm CLR
18:05 16.4 °C 4.4 °C 1024.5 hPa NE 17.2 km/h 25.9 km/h 45% 0.0 mm CLR
18:10 16.4 °C 4.4 °C 1024.5 hPa NE 13.7 km/h 24.1 km/h 45% 0.0 mm CLR
18:15 16.3 °C 4.7 °C 1024.5 hPa NE 13.7 km/h 22.2 km/h 46% 0.0 mm CLR
18:20 16.3 °C 4.7 °C 1024.5 hPa NE 14.8 km/h 14.8 km/h 46% 0.0 mm CLR
18:25 16.2 °C 5.2 °C 1024.5 hPa NE 14.8 km/h 16.7 km/h 48% 0.0 mm CLR
18:30 16.2 °C 5.2 °C 1024.5 hPa ENE 13.0 km/h 20.4 km/h 48% 0.0 mm CLR
18:35 16.2 °C 5.4 °C 1024.6 hPa NE 13.0 km/h 17.2 km/h 49% 0.0 mm CLR
18:40 16.0 °C 5.8 °C 1024.6 hPa NE 10.3 km/h 24.1 km/h 51% 0.0 mm CLR
18:45 15.8 °C 5.9 °C 1024.6 hPa NE 10.3 km/h 16.7 km/h 52% 0.0 mm CLR
18:50 15.7 °C 6.4 °C 1024.7 hPa East 14.0 km/h 18.0 km/h 54% 0.0 mm CLR
18:55 15.6 °C 6.6 °C 1024.7 hPa ENE 14.0 km/h 20.4 km/h 55% 0.0 mm CLR
19:00 15.4 °C 6.7 °C 1024.7 hPa NE 12.9 km/h 24.1 km/h 56% 0.0 mm CLR
19:05 15.3 °C 6.8 °C 1024.9 hPa ENE 13.0 km/h 24.1 km/h 57% 0.0 mm CLR
19:10 15.1 °C 6.9 °C 1024.9 hPa ENE 13.0 km/h 20.4 km/h 58% 0.0 mm CLR
19:15 15.1 °C 7.2 °C 1024.9 hPa NE 13.0 km/h 16.4 km/h 59% 0.0 mm CLR
19:20 14.9 °C 7.2 °C 1024.9 hPa NE 11.9 km/h 16.7 km/h 60% 0.0 mm CLR
19:25 14.8 °C 7.3 °C 1024.9 hPa NE 11.9 km/h 20.4 km/h 61% 0.0 mm CLR
19:30 14.7 °C 7.5 °C 1024.9 hPa NE 10.3 km/h 13.0 km/h 62% 0.0 mm CLR
19:35 14.6 °C 7.4 °C 1025.0 hPa NE 10.3 km/h 16.7 km/h 62% 0.0 mm CLR
19:40 14.4 °C 7.4 °C 1025.0 hPa NE 11.1 km/h 16.7 km/h 63% 0.0 mm CLR
19:45 14.3 °C 7.6 °C 1025.0 hPa NE 11.1 km/h 16.7 km/h 64% 0.0 mm CLR
19:50 14.2 °C 7.7 °C 1025.1 hPa NE 11.1 km/h 14.8 km/h 65% 0.0 mm CLR
19:55 14.1 °C 7.8 °C 1025.1 hPa NE 11.1 km/h 14.8 km/h 66% 0.0 mm CLR
20:00 14.1 °C 8.1 °C 1025.1 hPa NE 9.7 km/h 19.3 km/h 67% 0.0 mm CLR
20:05 13.9 °C 7.9 °C 1025.2 hPa NNE 10.0 km/h 15.6 km/h 67% 0.0 mm CLR
20:10 13.8 °C 8.0 °C 1025.2 hPa NE 8.7 km/h 13.0 km/h 68% 0.0 mm CLR
20:15 13.8 °C 8.0 °C 1025.2 hPa NE 8.7 km/h 9.3 km/h 68% 0.0 mm CLR
20:20 13.8 °C 8.0 °C 1025.4 hPa NE 5.8 km/h 13.0 km/h 68% 0.0 mm CLR
20:25 13.7 °C 8.1 °C 1025.4 hPa ENE 5.8 km/h 11.1 km/h 69% 0.0 mm CLR
20:30 13.6 °C 8.0 °C 1025.4 hPa ENE 6.4 km/h 7.4 km/h 69% 0.0 mm CLR
20:35 13.5 °C 8.1 °C 1025.5 hPa ESE 6.4 km/h 7.4 km/h 70% 0.0 mm CLR
20:40 13.4 °C 8.1 °C 1025.5 hPa ESE 5.8 km/h 9.3 km/h 70% 0.0 mm CLR
20:45 13.4 °C 8.2 °C 1025.5 hPa ENE 5.8 km/h 7.4 km/h 71% 0.0 mm CLR
20:50 13.3 °C 8.2 °C 1025.7 hPa East 5.0 km/h 9.3 km/h 71% 0.0 mm CLR
20:55 13.3 °C 8.2 °C 1025.7 hPa East 5.0 km/h 9.5 km/h 71% 0.0 mm CLR
21:00 13.2 °C 8.1 °C 1025.7 hPa East 3.2 km/h 9.7 km/h 71% 0.0 mm CLR
21:05 13.2 °C 8.3 °C 1025.9 hPa ENE 4.7 km/h 8.4 km/h 72% 0.0 mm CLR
21:10 13.2 °C 8.4 °C 1025.9 hPa NE 5.0 km/h 7.4 km/h 73% 0.0 mm CLR
21:15 13.1 °C 8.4 °C 1025.9 hPa NE 5.0 km/h 7.4 km/h 73% 0.0 mm CLR
21:20 13.1 °C 8.4 °C 1025.9 hPa NE 4.7 km/h 11.1 km/h 73% 0.0 mm CLR
21:25 13.1 °C 8.6 °C 1025.9 hPa NE 4.7 km/h 9.3 km/h 74% 0.0 mm CLR
21:30 13.1 °C 8.6 °C 1025.9 hPa NE 6.4 km/h 9.3 km/h 74% 0.0 mm CLR
21:35 13.0 °C 8.4 °C 1026.0 hPa NE 6.4 km/h 7.4 km/h 74% 0.0 mm CLR
21:40 12.9 °C 8.4 °C 1026.0 hPa NE 5.8 km/h 7.4 km/h 74% 0.0 mm CLR
21:45 12.9 °C 8.6 °C 1026.0 hPa ENE 5.8 km/h 5.6 km/h 75% 0.0 mm CLR
21:50 12.9 °C 8.6 °C 1025.9 hPa NE 4.7 km/h 4.7 km/h 75% 0.0 mm CLR
21:55 12.9 °C 8.6 °C 1025.9 hPa East 4.7 km/h 3.7 km/h 75% 0.0 mm CLR
22:00 12.9 °C 8.6 °C 1025.9 hPa ENE 3.2 km/h 4.8 km/h 75% 0.0 mm CLR
22:05 12.8 °C 8.5 °C 1026.0 hPa NE 2.9 km/h 6.4 km/h 75% 0.0 mm CLR
22:10 12.8 °C 8.5 °C 1026.0 hPa NNE 3.9 km/h 7.4 km/h 75% 0.0 mm CLR
22:15 12.6 °C 8.5 °C 1026.0 hPa NE 3.9 km/h 7.4 km/h 76% 0.0 mm CLR
22:20 12.5 °C 8.4 °C 1026.0 hPa NE 5.0 km/h 7.4 km/h 76% 0.0 mm CLR
22:25 12.4 °C 8.3 °C 1026.0 hPa NNE 5.0 km/h 5.6 km/h 76% 0.0 mm CLR
22:30 12.4 °C 8.5 °C 1026.0 hPa NNE 3.9 km/h 3.7 km/h 77% 0.0 mm CLR
22:35 12.3 °C 8.4 °C 1026.1 hPa NNE 3.9 km/h 3.7 km/h 77% 0.0 mm CLR
22:40 12.3 °C 8.4 °C 1026.1 hPa NNE 2.3 km/h 3.7 km/h 77% 0.0 mm CLR
22:45 12.3 °C 8.4 °C 1026.1 hPa NNE 2.3 km/h 5.6 km/h 77% 0.0 mm CLR
22:50 12.2 °C 8.3 °C 1026.0 hPa NNE 3.2 km/h 5.6 km/h 77% 0.0 mm CLR
22:55 12.2 °C 8.3 °C 1026.0 hPa NNE 3.2 km/h 3.7 km/h 77% 0.0 mm CLR
23:00 12.1 °C 8.2 °C 1026.0 hPa NNE 1.6 km/h 8.0 km/h 77% 0.0 mm CLR
23:05 11.9 °C 8.0 °C 1025.9 hPa West 2.3 km/h 5.6 km/h 77% 0.0 mm CLR
23:10 11.7 °C 7.8 °C 1025.9 hPa West 3.2 km/h 1.9 km/h 77% 0.0 mm CLR
23:15 11.6 °C 7.9 °C 1025.9 hPa West 3.2 km/h 7.4 km/h 78% 0.0 mm CLR
23:20 11.5 °C 8.0 °C 1025.9 hPa West 2.9 km/h 1.9 km/h 79% 0.0 mm CLR
23:25 11.4 °C 7.9 °C 1025.9 hPa West 2.9 km/h 5.8 km/h 79% 0.0 mm CLR
23:30 11.4 °C 8.1 °C 1025.9 hPa WNW 2.3 km/h 5.6 km/h 80% 0.0 mm CLR
23:35 11.4 °C 8.1 °C 1025.9 hPa NW 2.3 km/h 5.6 km/h 80% 0.0 mm CLR
23:40 11.4 °C 8.1 °C 1025.9 hPa NW 2.9 km/h 3.7 km/h 80% 0.0 mm CLR
23:45 11.4 °C 8.1 °C 1025.9 hPa NW 2.9 km/h 5.8 km/h 80% 0.0 mm CLR
23:50 11.3 °C 8.0 °C 1026.0 hPa NW 2.9 km/h 3.9 km/h 80% 0.0 mm CLR
23:55 11.3 °C 8.0 °C 1026.0 hPa NW 2.9 km/h 5.6 km/h 80% 0.0 mm CLR
Murcia-Puente Tocinos, España
Compliments of Weather Underground - 2.75 mb

La estación de MeteoMurcia.com, publica sus datos en los siguientes proyectos:

Weather Underground PWS IMURCIAP2 Meteoclimatic www.awekas.at

W3Counter
Web Analytics